{"data":{"norad_id":48268,"epoch":"2026-05-24T08:19:10.231680Z","epoch_age_seconds":128531,"freshness":"FRESH","line1":"1 48268U 21034A   26144.34664620  .00000506  00000+0  70866-4 0  9997","line2":"2 48268  97.8926 219.4559 0001440  94.5632 265.5745 14.81678103274123","mean_motion":14.81678103,"eccentricity":0.000144,"inclination_deg":97.8926,"raan_deg":219.4559,"arg_perigee_deg":94.5632,"mean_anomaly_deg":265.5745,"bstar":7.0866e-5,"rev_number":27412,"period_min":97.18710137407,"perigee_km":623.02386667729,"apogee_km":625.04049140086,"semimajor_km":7002.1691790391,"source":"CELESTRAK","updated_at":"2026-05-25T13:38:12.834004Z"}}